EDT,Max TemperatureF,Mean TemperatureF,Min TemperatureF,Max Dew PointF,MeanDew PointF,Min DewpointF,Max Humidity, Mean Humidity, Min Humidity, Max Sea Level PressureIn, Mean Sea Level PressureIn, Min Sea Level PressureIn, Max VisibilityMiles, Mean VisibilityMiles, Min VisibilityMiles, Max Wind SpeedMPH, Mean Wind SpeedMPH, Max Gust SpeedMPH,PrecipitationIn, CloudCover, Events, WindDirDegrees
2013-5-1,72,58,44,56,46,34,93,69,42,30.29,30.10,29.88,10,10,5,18,9,25,0.00,1,,37
2013-5-2,56,48,39,43,38,35,86,71,53,30.29,30.24,30.17,10,10,10,18,8,28,0.00,2,,36
2013-5-3,51,44,38,41,38,36,94,75,61,30.19,30.15,30.10,10,10,5,21,9,33,0.00,5,Rain,65
2013-5-4,60,52,43,42,39,36,84,67,40,30.16,30.13,30.10,10,10,10,20,10,31,0.00,0,,104
2013-5-5,63,52,42,41,37,32,82,56,31,30.16,30.12,30.07,10,10,10,16,7,23,0.00,0,,99
2013-5-6,70,54,39,40,36,32,86,54,24,30.12,30.08,30.02,10,10,7,9,4,,0.00,0,,87
2013-5-7,69,57,45,41,30,21,82,38,19,30.12,30.07,30.04,10,10,5,14,6,20,0.00,0,,88
2013-5-8,74,59,44,38,33,26,66,33,20,30.05,30.02,29.97,10,10,10,9,6,,0.00,0,,189
2013-5-9,69,58,45,46,40,30,76,51,34,30.05,29.98,29.94,10,10,10,18,7,25,0.00,2,Rain,4
2013-5-10,44,40,37,40,36,34,93,85,69,30.07,30.01,29.93,10,8,3,17,11,23,0.39,8,Rain-Snow,48
2013-5-11,47,41,35,40,36,32,94,84,62,29.92,29.78,29.69,10,9,1,18,6,34,0.07,6,Rain-Snow,285
2013-5-12,40,37,34,35,28,24,92,70,52,30.01,29.84,29.65,10,10,7,25,19,38,0.00,8,Snow,300
2013-5-13,47,40,34,33,27,22,83,59,38,30.10,30.05,30.00,10,10,10,18,10,25,0.00,1,,265
2013-5-14,49,44,40,40,37,28,90,78,53,30.02,29.85,29.65,10,9,5,22,10,29,0.03,4,Rain,116
2013-5-15,65,52,39,46,41,36,95,66,35,29.74,29.62,29.47,10,8,1,26,12,32,0.00,2,,265
2013-5-16,61,52,44,40,38,35,82,58,42,30.09,29.91,29.72,10,10,10,10,7,21,0.00,0,,314
2013-5-17,56,48,39,40,37,36,90,65,47,30.22,30.17,30.08,10,10,10,20,7,28,0.00,0,,96
2013-5-18,54,48,43,43,39,37,81,69,59,30.22,30.16,30.05,10,10,10,13,8,18,0.00,4,Rain,108
2013-5-19,69,56,43,52,43,40,85,68,44,30.04,29.97,29.88,10,10,7,17,7,22,0.00,3,Rain,103
2013-5-20,56,51,46,55,49,44,96,90,75,29.92,29.85,29.76,10,6,0,23,16,37,0.30,7,Fog-Rain,97
2013-5-21,55,51,47,54,50,47,97,96,95,29.84,29.75,29.70,10,2,0,21,15,31,0.60,8,Fog-Rain,96
2013-5-22,56,54,52,55,53,51,97,96,95,29.77,29.72,29.70,10,3,0,15,8,22,0.32,8,Fog-Rain,70
2013-5-23,52,46,41,51,38,31,96,74,47,30.25,30.02,29.78,10,9,3,20,14,29,0.30,4,Rain,360
2013-5-24,50,43,36,40,32,28,89,65,44,30.39,30.34,30.25,10,10,10,14,9,20,0.00,0,,338
2013-5-25,59,48,38,38,34,30,84,58,36,30.45,30.37,30.32,10,10,10,12,7,,0.00,0,,324
2013-5-26,63,52,41,35,31,26,77,45,25,30.39,30.31,30.23,10,10,10,10,5,,0.00,0,,88
2013-5-27,62,53,44,42,33,29,71,47,33,30.26,30.17,30.04,10,10,10,16,6,25,0.00,0,,96
2013-5-28,55,50,45,46,41,29,97,82,37,30.03,29.90,29.77,10,5,0,20,10,30,0.41,7,Fog-Rain,97
2013-5-29,60,52,45,58,51,45,97,95,88,29.93,29.86,29.75,10,4,0,13,5,21,0.00,7,Fog,246
2013-5-30,78,63,48,68,56,48,97,83,61,29.94,29.91,29.86,10,8,2,14,7,24,0.00,2,,118
2013-5-31,73,66,60,66,62,59,94,84,72,29.88,29.81,29.77,10,10,0,17,10,26,0.10,2,Fog-Rain,218